Bismarck, ND

6:04 PM CST on February 06, 2016 (GMT -0600)
Bismarck Municipal

Weather History for KBIS - October, 2012

Change the Weather History Date:

Tuesday, October 16, 2012

  Actual Average Record
Temperature  
Mean Temperature 59 °F 45 °F  
Max Temperature 70 °F 58 °F 87 °F (1991)
Min Temperature 47 °F 32 °F 12 °F (1976)
Degree Days  
Heating Degree Days 6 20  
Month to date heating degree days 307 269  
Since 1 July heating degree days 539 555  
Cooling Degree Days 0 0  
Month to date cooling degree days 0 0  
Year to date cooling degree days 599 519  
Growing Degree Days 9 (Base 50)    
Moisture  
Dew Point 47 °F    
Average Humidity 65    
Maximum Humidity 93    
Minimum Humidity 37    
Precipitation  
Precipitation 0.06 in 0.05 in 1.19 in (1980)
Month to date precipitation 0.57 0.68  
Year to date precipitation 12.75 16.08  
Snow  
Snow 0.00 in 0.10 in 1.00 in (1922)
Month to date snowfall T 0.5  
Since 1 July snowfall T 0.7  
Since 1 September snowfall T 0.7  
Snow Depth 0.00 in    
Sea Level Pressure  
Sea Level Pressure 29.46 in    
Wind  
Wind Speed 6 mph (WSW)    
Max Wind Speed 20 mph    
Max Gust Speed 24 mph    
Visibility 10 miles    
Events Rain    
T = Trace of Precipitation, MM = Missing Value Source: NWS Daily Summary

Daily Weather History Graph

Daily Weather History Graph

Search for Another Location

Airport or City:

Trip Planner

Search our weather history database for the weather conditions in past years. The results will help you decide how hot, cold, wet, or windy it might be!

Date:

Astronomy

Oct. 16, 2012 Rise Set
Actual Time 8:02 AM CDT 6:53 PM CDT
Civil Twilight 7:32 AM CDT 7:23 PM CDT
Nautical Twilight 6:57 AM CDT 7:58 PM CDT
Astronomical Twilight 6:21 AM CDT 8:33 PM CDT
Moon 9:36 AM CDT (10/16) 7:29 PM CDT (10/16)
Length of Visible Light 11h 51m
Length of Day
10h 50m
New Moon, 2% of the Moon is Illuminated
Oct 16
New Moon
Oct 21
First Quarter
Oct 29
Full
Nov 6
Last Quarter
Nov 13
New

Hourly Weather History & Observations

Time (CDT) Temp. Dew Point Humidity Pressure Visibility Wind Dir Wind Speed Gust Speed Precip Events Conditions
12:52 AM 55.9 °F 51.1 °F 84% 29.64 in 10.0 mi West 10.4 mph - 0.00 in   Overcast
1:52 AM 55.9 °F 50.0 °F 80% 29.62 in 10.0 mi West 8.1 mph - N/A   Mostly Cloudy
2:52 AM 55.4 °F 50.0 °F 82% 29.62 in 10.0 mi WNW 6.9 mph - N/A   Mostly Cloudy
3:52 AM 54.0 °F 48.9 °F 83% 29.59 in 10.0 mi Calm Calm - N/A   Mostly Cloudy
4:52 AM 53.1 °F 48.0 °F 83% 29.60 in 10.0 mi West 4.6 mph - N/A   Overcast
5:52 AM 52.0 °F 48.0 °F 86% 29.59 in 10.0 mi West 6.9 mph - N/A   Mostly Cloudy
6:52 AM 50.0 °F 46.4 °F 87% 29.58 in 10.0 mi WSW 3.5 mph - N/A   Clear
7:52 AM 48.9 °F 45.0 °F 86% 29.57 in 10.0 mi SW 3.5 mph - N/A   Clear
8:52 AM 48.0 °F 45.0 °F 89% 29.57 in 10.0 mi WSW 4.6 mph - N/A   Clear
9:52 AM 53.1 °F 46.0 °F 77% 29.54 in 10.0 mi Calm Calm - N/A   Clear
10:52 AM 55.9 °F 46.9 °F 72% 29.52 in 10.0 mi SW 9.2 mph - N/A   Clear
11:52 AM 60.1 °F 46.9 °F 62% 29.49 in 10.0 mi SSW 5.8 mph - N/A   Clear
12:52 PM 64.0 °F 46.0 °F 52% 29.44 in 10.0 mi South 4.6 mph - N/A   Clear
1:52 PM 70.0 °F 45.0 °F 41% 29.40 in 10.0 mi SSW 10.4 mph - N/A   Clear
2:52 PM 69.1 °F 43.0 °F 39% 29.36 in 10.0 mi SSW 15.0 mph - N/A   Clear
3:52 PM 69.1 °F 42.1 °F 38% 29.33 in 10.0 mi SW 6.9 mph - N/A   Clear
4:52 PM 66.9 °F 43.0 °F 42% 29.31 in 10.0 mi SSW 8.1 mph - N/A   Clear
5:52 PM 64.9 °F 46.0 °F 50% 29.29 in 10.0 mi Calm Calm - N/A   Mostly Cloudy
6:52 PM 59.0 °F 46.0 °F 62% 29.31 in 10.0 mi South 4.6 mph - N/A   Mostly Cloudy
7:52 PM 62.1 °F 46.0 °F 56% 29.31 in 10.0 mi West 11.5 mph - N/A   Mostly Cloudy
8:52 PM 57.9 °F 50.0 °F 75% 29.29 in 10.0 mi NW 5.8 mph - 0.00 in Rain Light Rain
9:52 PM 55.0 °F 51.1 °F 86% 29.28 in 10.0 mi Calm Calm - 0.02 in Rain Light Rain
10:52 PM 55.0 °F 52.0 °F 89% 29.29 in 10.0 mi WNW 5.8 mph - 0.02 in Rain Light Rain
11:52 PM 54.0 °F 52.0 °F 93% 29.30 in 10.0 mi WSW 5.8 mph - 0.02 in Rain Light Rain